Regional Weather Roundup
Issued by NWS

Home | Current Version | Previous Version | Graphics & Text | Print | Product List | Glossary On
Versions: 1 2 3 4 5 6 7 8 9 10 11 12 13 14 15 16 17 18 19 20 21 22 23 24 25 26 27 28 29 30 31 32 33 34 35 36 37 38 39 40 41 42 43 44 45
000
ASUS45 KSLC 291610
RWRUT

UTAH REGIONAL WEATHER ROUNDUP
NATIONAL WEATHER SERVICE SALT LAKE CITY UT
1000 AM MDT SAT AUG 29 2015

UTZ001>011-023>025-291700-

NORTHERN UTAH

CITY           SKY/WX    TMP DP  RH WIND       PRES   REMARKS
BRIGHAM CITY   MOSUNNY   73  44  35 CALM      30.09R
HILL AFB       MOSUNNY   78  42  26 E8        30.11R
LOGAN          SUNNY     70  43  37 N5        30.09F
OGDEN          MOSUNNY   81  42  25 CALM      30.08R
PROVO AIRPORT  MOSUNNY   75  45  33 CALM      30.14S
SALT LAKE CITY CLOUDY    82  42  24 SE14      30.06S
VERNAL         SUNNY     72  38  29 SE6       30.26S
WENDOVER       PTSUNNY   75  41  29 E9        30.05S
HEBER CITY     SUNNY     64  45  48 CALM      30.23F
WEST JORDAN    SUNNY     82  43  24 S18       30.11S

$$

UTZ012>022-026-027-291700-

SOUTHERN/CENTRAL UTAH

CITY           SKY/WX    TMP DP  RH WIND       PRES   REMARKS
BLANDING       SUNNY     74  44  33 SE9       30.40R
BRYCE CANYON   SUNNY     70  45  40 CALM      30.41R
CEDAR CITY     SUNNY     80  42  25 VRB3      30.21S
DELTA          SUNNY     80  40  23 CALM      30.14S
HANKSVILLE     SUNNY     72  41  33 CALM      30.21S
MILFORD        MOSUNNY   81  45  28 S13       30.15F
MOAB/CYNLANDS  SUNNY     81  43  26 E7        30.18S
PRICE          SUNNY     73  39  29 SE7       30.28R
ST GEORGE      SUNNY     82  50  32 W6        30.05S
KANAB          SUNNY     79  54  41 N9        30.24F

$$

REGIONAL REPORTS     COLORADO/ARIZONA

CITY           SKY/WX    TMP DP  RH WIND       PRES   REMARKS
CRAIG, CO      SUNNY     72  45  37 E9        30.32F
GRAND JUNCTION SUNNY     75  45  34 SE12      30.24R
RIFLE          SUNNY     66  47  50 CALM      30.30F
MONTROSE       SUNNY     72  45  37 CALM      30.32S
CORTEZ         SUNNY     78  48  34 S9        30.31S
PAGE, AZ       SUNNY     78  48  34 NW6       30.16S
GRAND CANYON   SUNNY     79  42  26 S8        30.33R
KINGMAN        SUNNY     91  53  27 W6        30.05S
FLAGSTAFF      SUNNY     73  50  44 VRB5      30.37R

$$

REGIONAL REPORTS    NEVADA/IDAHO/WYOMING

CITY           SKY/WX    TMP DP  RH WIND       PRES   REMARKS
LAS VEGAS, NV  MOSUNNY   95  45  17 S7        29.89S HX  91
ELY            PTSUNNY   76  46  34 S16       30.20F
ELKO           CLOUDY    70  47  43 VRB3      30.07S
POCATELLO, ID  PTSUNNY   77  40  26 NE3       30.02F
EVANSTON, WY   MOSUNNY   72  32  23 SW5       30.31S
ROCK SPRINGS   SUNNY     70  37  29 CALM      30.32R
KEMMERER       MOSUNNY   70  32  24 SE3       30.34S

$$



USA.gov is the U.S. government's official web portal to all federal, state and local government web resources and services.